EWG86E LSZH-EDDL

Flight info

Callsign EWG86E
Flight time 1h 0m
Altitude 30000
Route VEBIT T10 TORPA DCT EDOPI DCT GIVOR DCT SORAL DCT IBERA DCT DIK/N0434F310 N853 ARCKY T853 NVO T857 BIKMU BIKMU1A
Aircraft A319/M-SDE3FGHIJ1RWY/LB1

Departure

Time 2026-04-30 08:40
Airport Zürich Airport (LSZH)

Arrival

Time 2026-04-30 09:41
Airport Düsseldorf Airport (EDDL)
Time Latitude Longitude Altitude Speed Heading
2026-04-30 08:05 47.45409 8.56061 1407 ft 0 kts 185°
2026-04-30 08:33 47.45428 8.56064 1413 ft 4 kts 180°
2026-04-30 08:33 47.45455 8.56060 1411 ft 4 kts 165°
2026-04-30 08:33 47.45479 8.56045 1412 ft 4 kts 136°
2026-04-30 08:33 47.45489 8.56022 1414 ft 0 kts 95°
2026-04-30 08:36 47.45489 8.56024 1414 ft 1 kts 95°
2026-04-30 08:36 47.45488 8.56036 1410 ft 3 kts 95°
2026-04-30 08:37 47.45485 8.56076 1410 ft 5 kts 95°
2026-04-30 08:37 47.45481 8.56145 1407 ft 8 kts 95°
2026-04-30 08:37 47.45489 8.56234 1415 ft 9 kts 50°
2026-04-30 08:37 47.45529 8.56307 1411 ft 9 kts 51°
2026-04-30 08:38 47.45570 8.56383 1413 ft 11 kts 51°
2026-04-30 08:38 47.45595 8.56498 1415 ft 13 kts 98°
2026-04-30 08:38 47.45583 8.56636 1417 ft 14 kts 96°
2026-04-30 08:38 47.45572 8.56787 1421 ft 15 kts 96°
2026-04-30 08:39 47.45562 8.56941 1420 ft 13 kts 96°
2026-04-30 08:39 47.45592 8.57010 1423 ft 6 kts 17°
2026-04-30 08:39 47.45631 8.57024 1425 ft 8 kts 10°
2026-04-30 08:39 47.45665 8.56978 1424 ft 0 kts 276°
2026-04-30 08:40 47.45669 8.56917 1423 ft 21 kts 276°
2026-04-30 08:40 47.45715 8.56286 1419 ft 100 kts 276°
2026-04-30 08:40 47.45814 8.54936 1403 ft 161 kts 280°
2026-04-30 08:40 47.45931 8.53324 2045 ft 153 kts 281°
2026-04-30 08:41 47.46039 8.51791 2797 ft 148 kts 280°
2026-04-30 08:41 47.46162 8.50220 3141 ft 164 kts 280°
2026-04-30 08:41 47.46267 8.48468 3581 ft 180 kts 268°
2026-04-30 08:41 47.45738 8.46760 3910 ft 196 kts 217°
2026-04-30 08:42 47.44473 8.45900 4326 ft 210 kts 198°
2026-04-30 08:42 47.43240 8.44600 4885 ft 230 kts 227°
2026-04-30 08:42 47.42277 8.42565 5399 ft 252 kts 236°
2026-04-30 08:42 47.41322 8.40264 6003 ft 275 kts 237°
2026-04-30 08:43 47.40293 8.37817 6843 ft 284 kts 236°
2026-04-30 08:43 47.39199 8.35350 7734 ft 291 kts 234°
2026-04-30 08:43 47.38225 8.32706 8663 ft 296 kts 246°
2026-04-30 08:43 47.37357 8.29925 9580 ft 301 kts 243°
2026-04-30 08:44 47.36404 8.27163 10511 ft 304 kts 242°
2026-04-30 08:44 47.35397 8.24369 11140 ft 318 kts 242°
2026-04-30 08:44 47.34310 8.21391 11450 ft 341 kts 242°
2026-04-30 08:44 47.33163 8.18243 11998 ft 352 kts 242°
2026-04-30 08:45 47.32000 8.15025 12779 ft 356 kts 242°
2026-04-30 08:45 47.30838 8.11787 13542 ft 362 kts 243°
2026-04-30 08:45 47.29662 8.08489 14282 ft 365 kts 243°
2026-04-30 08:45 47.28496 8.05140 14980 ft 368 kts 246°
2026-04-30 08:46 47.27671 8.01573 15648 ft 370 kts 259°
2026-04-30 08:46 47.27338 7.97814 16328 ft 371 kts 271°
2026-04-30 08:46 47.27501 7.94074 16974 ft 372 kts 281°
2026-04-30 08:46 47.27882 7.90240 17660 ft 376 kts 281°
2026-04-30 08:47 47.28248 7.86456 18313 ft 380 kts 281°
2026-04-30 08:47 47.28616 7.82580 18911 ft 384 kts 281°
2026-04-30 08:47 47.28984 7.78665 19471 ft 388 kts 281°
2026-04-30 08:47 47.29355 7.74702 20041 ft 393 kts 281°
2026-04-30 08:48 47.29729 7.70700 20604 ft 397 kts 281°
2026-04-30 08:48 47.30107 7.66647 21174 ft 401 kts 281°
2026-04-30 08:48 47.30571 7.62580 21720 ft 403 kts 287°
2026-04-30 08:48 47.31397 7.58625 22258 ft 405 kts 291°
2026-04-30 08:49 47.32274 7.54655 22801 ft 410 kts 291°
2026-04-30 08:49 47.33154 7.50638 23356 ft 414 kts 291°
2026-04-30 08:49 47.34036 7.46580 23851 ft 418 kts 291°
2026-04-30 08:49 47.34925 7.42469 24287 ft 422 kts 291°
2026-04-30 08:50 47.35817 7.38331 24723 ft 425 kts 291°
2026-04-30 08:50 47.36713 7.34157 25186 ft 428 kts 290°
2026-04-30 08:50 47.37613 7.29954 25640 ft 431 kts 290°
2026-04-30 08:50 47.38518 7.25725 26083 ft 433 kts 290°
2026-04-30 08:51 47.39429 7.21468 26527 ft 436 kts 290°
2026-04-30 08:51 47.40344 7.17184 26976 ft 439 kts 290°
2026-04-30 08:51 47.41117 7.12817 27385 ft 443 kts 285°
2026-04-30 08:51 47.41779 7.08359 27813 ft 445 kts 284°
2026-04-30 08:52 47.42440 7.03881 28263 ft 448 kts 284°
2026-04-30 08:52 47.43102 6.99377 28704 ft 450 kts 284°
2026-04-30 08:52 47.43763 6.94852 29136 ft 452 kts 284°
2026-04-30 08:52 47.44416 6.90347 29553 ft 455 kts 284°
2026-04-30 08:53 47.45074 6.85763 29959 ft 458 kts 284°
2026-04-30 08:53 47.45733 6.81150 30191 ft 458 kts 284°
2026-04-30 08:53 47.46494 6.76664 30223 ft 442 kts 292°
2026-04-30 08:53 47.47811 6.72669 30217 ft 426 kts 306°
2026-04-30 08:54 47.49656 6.69312 30221 ft 417 kts 320°
2026-04-30 08:54 47.51916 6.66689 30223 ft 412 kts 333°
2026-04-30 08:54 47.54487 6.64889 30219 ft 407 kts 346°
2026-04-30 08:55 47.59989 6.63447 30219 ft 402 kts 356°
2026-04-30 08:55 47.65531 6.62342 30219 ft 401 kts 356°
2026-04-30 08:56 47.71054 6.61226 30213 ft 400 kts 356°
2026-04-30 08:56 47.76571 6.60116 30208 ft 400 kts 356°
2026-04-30 08:57 47.82087 6.58997 30193 ft 400 kts 356°
2026-04-30 08:57 47.87606 6.57880 30180 ft 400 kts 356°
2026-04-30 08:58 47.93092 6.56762 30182 ft 401 kts 356°
2026-04-30 08:58 47.98605 6.55506 30185 ft 401 kts 355°
2026-04-30 08:59 48.04117 6.54132 30178 ft 401 kts 354°
2026-04-30 08:59 48.09621 6.52774 30182 ft 401 kts 355°
2026-04-30 09:00 48.15133 6.51454 30190 ft 401 kts 355°
2026-04-30 09:00 48.20652 6.50133 30198 ft 401 kts 355°
2026-04-30 09:01 48.26162 6.48805 30199 ft 401 kts 355°
2026-04-30 09:01 48.31627 6.47489 30211 ft 400 kts 355°
2026-04-30 09:02 48.39870 6.45484 30204 ft 400 kts 355°
2026-04-30 09:02 48.45375 6.44141 30206 ft 401 kts 355°
2026-04-30 09:03 48.50887 6.42802 30210 ft 401 kts 356°
2026-04-30 09:03 48.56406 6.41453 30243 ft 402 kts 356°
2026-04-30 09:04 48.61924 6.40100 30252 ft 402 kts 355°
2026-04-30 09:04 48.67447 6.39287 30255 ft 394 kts
2026-04-30 09:05 48.72907 6.39857 30253 ft 393 kts
2026-04-30 09:05 48.78369 6.40414 30255 ft 393 kts
2026-04-30 09:06 48.83794 6.40960 30276 ft 393 kts
2026-04-30 09:06 48.89257 6.41512 30279 ft 393 kts
2026-04-30 09:07 48.94718 6.42064 30278 ft 393 kts
2026-04-30 09:07 49.00180 6.42610 30282 ft 393 kts
2026-04-30 09:08 49.05641 6.43170 30280 ft 393 kts
2026-04-30 09:08 49.11118 6.43478 30283 ft 398 kts 360°
2026-04-30 09:09 49.16580 6.41631 30286 ft 404 kts 349°
2026-04-30 09:09 49.22004 6.39398 30290 ft 404 kts 350°
2026-04-30 09:10 49.27432 6.37173 30295 ft 404 kts 350°
2026-04-30 09:10 49.32862 6.34941 30293 ft 404 kts 350°
2026-04-30 09:11 49.38256 6.32713 30299 ft 404 kts 349°
2026-04-30 09:11 49.43670 6.30465 30307 ft 403 kts 350°
2026-04-30 09:12 49.49080 6.28227 30313 ft 403 kts 350°
2026-04-30 09:12 49.54495 6.25995 30303 ft 403 kts 350°
2026-04-30 09:13 49.59935 6.23771 30299 ft 404 kts 350°
2026-04-30 09:13 49.65366 6.21547 30306 ft 404 kts 349°
2026-04-30 09:14 49.70802 6.19298 30311 ft 404 kts 349°
2026-04-30 09:14 49.76239 6.17059 30313 ft 405 kts 349°
2026-04-30 09:15 49.81683 6.14805 30301 ft 405 kts 349°
2026-04-30 09:15 49.87121 6.13028 30305 ft 399 kts
2026-04-30 09:16 49.92638 6.13031 30295 ft 397 kts
2026-04-30 09:16 49.95400 6.13051 30006 ft 397 kts
2026-04-30 09:16 49.98156 6.13057 29719 ft 396 kts
2026-04-30 09:17 50.00903 6.13063 29444 ft 394 kts
2026-04-30 09:17 50.03640 6.13073 29161 ft 392 kts
2026-04-30 09:17 50.06363 6.13085 28881 ft 390 kts
2026-04-30 09:17 50.09079 6.13098 28609 ft 389 kts
2026-04-30 09:18 50.11775 6.13112 28343 ft 386 kts
2026-04-30 09:18 50.14442 6.13129 28016 ft 381 kts
2026-04-30 09:18 50.17088 6.13143 27610 ft 378 kts
2026-04-30 09:18 50.19712 6.13152 27215 ft 376 kts
2026-04-30 09:19 50.22311 6.13162 26830 ft 373 kts
2026-04-30 09:19 50.24028 6.13170 26572 ft 371 kts
2026-04-30 09:19 50.26593 6.13203 26173 ft 367 kts
2026-04-30 09:19 50.29092 6.13760 25784 ft 359 kts 17°
2026-04-30 09:20 50.31427 6.15034 25395 ft 353 kts 28°
2026-04-30 09:20 50.33533 6.16931 24999 ft 347 kts 36°
2026-04-30 09:20 50.35539 6.19014 24612 ft 345 kts 36°
2026-04-30 09:20 50.37536 6.21067 24217 ft 342 kts 35°
2026-04-30 09:21 50.39524 6.23099 23795 ft 340 kts 35°
2026-04-30 09:21 50.41496 6.25109 23366 ft 336 kts 35°
2026-04-30 09:21 50.43448 6.27101 22958 ft 333 kts 35°
2026-04-30 09:21 50.45373 6.29078 22554 ft 329 kts 36°
2026-04-30 09:22 50.47277 6.31043 22145 ft 326 kts 36°
2026-04-30 09:22 50.49166 6.32996 21722 ft 324 kts 36°
2026-04-30 09:22 50.51065 6.34883 21306 ft 322 kts 34°
2026-04-30 09:22 50.52987 6.36667 20898 ft 321 kts 33°
2026-04-30 09:23 50.54920 6.38408 20482 ft 319 kts 33°
2026-04-30 09:23 50.56845 6.40137 20067 ft 318 kts 33°
2026-04-30 09:23 50.58760 6.41867 19653 ft 317 kts 33°
2026-04-30 09:23 50.60667 6.43606 19237 ft 316 kts 33°
2026-04-30 09:24 50.62543 6.45326 18838 ft 316 kts 33°
2026-04-30 09:24 50.64443 6.47071 18391 ft 315 kts 33°
2026-04-30 09:24 50.66332 6.48813 17962 ft 313 kts 34°
2026-04-30 09:24 50.68204 6.50548 17549 ft 311 kts 33°
2026-04-30 09:25 50.70062 6.52272 17151 ft 309 kts 34°
2026-04-30 09:25 50.71910 6.53992 16746 ft 307 kts 34°
2026-04-30 09:25 50.73748 6.55704 16361 ft 306 kts 34°
2026-04-30 09:25 50.75577 6.57411 15965 ft 305 kts 34°
2026-04-30 09:26 50.77399 6.59111 15563 ft 304 kts 34°
2026-04-30 09:26 50.79217 6.60805 15164 ft 303 kts 34°
2026-04-30 09:26 50.81037 6.62481 14762 ft 303 kts 31°
2026-04-30 09:26 50.83006 6.63700 14357 ft 306 kts 18°
2026-04-30 09:27 50.85116 6.64256 13919 ft 308 kts 11°
2026-04-30 09:27 50.87235 6.64694 13511 ft 306 kts 12°
2026-04-30 09:27 50.89310 6.65132 13115 ft 304 kts 12°
2026-04-30 09:27 50.91402 6.65581 12715 ft 303 kts 12°
2026-04-30 09:28 50.93482 6.66029 12315 ft 301 kts 12°
2026-04-30 09:28 50.95554 6.66477 11919 ft 300 kts 12°
2026-04-30 09:28 50.97621 6.66923 11527 ft 299 kts 12°
2026-04-30 09:28 50.99677 6.67367 11144 ft 297 kts 12°
2026-04-30 09:29 51.01725 6.67803 10768 ft 297 kts 11°
2026-04-30 09:29 51.03799 6.67820 10443 ft 298 kts
2026-04-30 09:29 51.05854 6.67637 10190 ft 293 kts
2026-04-30 09:29 51.07884 6.67468 9923 ft 292 kts
2026-04-30 09:30 51.09913 6.67260 9518 ft 293 kts 357°
2026-04-30 09:30 51.11892 6.66411 9249 ft 296 kts 342°
2026-04-30 09:30 51.13793 6.65158 9191 ft 296 kts 342°
2026-04-30 09:30 51.15697 6.63916 9069 ft 295 kts 342°
2026-04-30 09:31 51.17596 6.62679 8690 ft 294 kts 342°
2026-04-30 09:31 51.19438 6.61241 8328 ft 298 kts 328°
2026-04-30 09:31 51.20895 6.58882 8055 ft 298 kts 309°
2026-04-30 09:31 51.22136 6.56293 7929 ft 290 kts 310°
2026-04-30 09:32 51.23305 6.53731 7800 ft 283 kts 302°
2026-04-30 09:32 51.24018 6.50853 7671 ft 277 kts 282°
2026-04-30 09:32 51.24144 6.47872 7448 ft 271 kts 262°
2026-04-30 09:32 51.23698 6.44989 7179 ft 266 kts 243°
2026-04-30 09:33 51.22767 6.42500 6891 ft 259 kts 226°
2026-04-30 09:33 51.21665 6.40233 6616 ft 258 kts 225°
2026-04-30 09:33 51.20327 6.38478 6325 ft 243 kts 196°
2026-04-30 09:33 51.18733 6.38009 5996 ft 229 kts 169°
2026-04-30 09:34 51.17251 6.38662 5686 ft 218 kts 145°
2026-04-30 09:34 51.16120 6.40169 5378 ft 210 kts 123°
2026-04-30 09:34 51.15481 6.42217 5055 ft 206 kts 102°
2026-04-30 09:34 51.15405 6.44475 4762 ft 205 kts 83°
2026-04-30 09:35 51.15847 6.46641 4451 ft 207 kts 72°
2026-04-30 09:35 51.16385 6.48763 4014 ft 206 kts 72°
2026-04-30 09:35 51.16919 6.50877 3501 ft 206 kts 73°
2026-04-30 09:35 51.17450 6.52908 3294 ft 191 kts 68°
2026-04-30 09:36 51.18146 6.54623 3193 ft 178 kts 62°
2026-04-30 09:36 51.18854 6.56147 3101 ft 165 kts 61°
2026-04-30 09:36 51.19521 6.57551 2943 ft 153 kts 61°
2026-04-30 09:36 51.20139 6.58844 2769 ft 141 kts 61°
2026-04-30 09:37 51.20707 6.60029 2604 ft 134 kts 60°
2026-04-30 09:37 51.21269 6.61205 2417 ft 131 kts 59°
2026-04-30 09:37 51.21813 6.62344 2239 ft 130 kts 59°
2026-04-30 09:37 51.22362 6.63490 2056 ft 129 kts 59°
2026-04-30 09:38 51.22908 6.64632 1882 ft 128 kts 59°
2026-04-30 09:38 51.23451 6.65764 1698 ft 128 kts 59°
2026-04-30 09:38 51.23992 6.66895 1525 ft 128 kts 59°
2026-04-30 09:38 51.24536 6.68032 1331 ft 131 kts 56°
2026-04-30 09:39 51.25084 6.69176 1158 ft 128 kts 58°
2026-04-30 09:39 51.25628 6.70315 977 ft 128 kts 58°
2026-04-30 09:39 51.26167 6.71443 812 ft 128 kts 57°
2026-04-30 09:39 51.26705 6.72581 627 ft 129 kts 59°
2026-04-30 09:40 51.27246 6.73705 448 ft 126 kts 56°
2026-04-30 09:40 51.27788 6.74837 279 ft 132 kts 58°
2026-04-30 09:40 51.28350 6.76002 141 ft 127 kts 59°
2026-04-30 09:40 51.28817 6.76998 127 ft 93 kts 53°
2026-04-30 09:41 51.29024 6.77463 126 ft 26 kts 77°
2026-04-30 09:41 51.28971 6.77610 127 ft 11 kts 139°
2026-04-30 09:41 51.28891 6.77621 127 ft 14 kts 223°
2026-04-30 09:41 51.28827 6.77482 129 ft 17 kts 233°
2026-04-30 09:42 51.28749 6.77318 128 ft 20 kts 232°
2026-04-30 09:42 51.28659 6.77130 128 ft 23 kts 234°
2026-04-30 09:42 51.28557 6.76916 127 ft 26 kts 232°
2026-04-30 09:42 51.28459 6.76712 124 ft 17 kts 233°
2026-04-30 09:43 51.28390 6.76568 123 ft 9 kts 232°
2026-04-30 09:43 51.28340 6.76487 122 ft 11 kts 199°
2026-04-30 09:43 51.28271 6.76490 126 ft 9 kts 202°
2026-04-30 09:43 51.28209 6.76437 127 ft 11 kts 190°
2026-04-30 09:44 51.28162 6.76439 123 ft 7 kts 150°
2026-04-30 09:44 51.28154 6.76480 127 ft 3 kts 96°
2026-04-30 09:44 51.28151 6.76522 126 ft 5 kts 96°
2026-04-30 09:44 51.28150 6.76547 128 ft 0 kts 96°
2026-04-30 09:52 51.28108 6.76548 125 ft 0 kts 96°